Location: STAR School
(35.3054°N, 111.2976°W)
Time: 09:30:00
(UTC-07:00)

deb Explorer IX - Pass Details

Date: 29 May 2019
Orbit: 537 x 1115 km, 38.8° (Epoch: 14 June)

Event Time Altitude Azimuth Distance (km) Brightness Sun altitude
Exits shadow 01:50:47 23° 63° (ENE) 1,154 ? -29.4°
Drops below altitude 10° 01:52:29 10° 73° (ENE) 1,784 ? -29.2°
Sets 01:54:46 0° 79° (ENE) 2,690 ? -29.0°
